, FL

(GMT )
Crestview

Weather History for KEGI - April, 2014

Change the Weather History Date:

Tuesday, April 8, 2014

  Actual Average Record
Temperature  
Mean Temperature 58 °F -  
Max Temperature 68 °F - - ()
Min Temperature 48 °F - - ()
Degree Days  
Heating Degree Days 8    
Growing Degree Days 8 (Base 50)    
Moisture  
Dew Point 46 °F    
Average Humidity 69    
Maximum Humidity 92    
Minimum Humidity 38    
Precipitation  
Precipitation 0.00 in - - ()
Sea Level Pressure  
Sea Level Pressure 29.85 in    
Wind  
Wind Speed 9 mph (NW)    
Max Wind Speed 15 mph    
Max Gust Speed 26 mph    
Visibility 10 miles    
Events Rain    
Averages and records for this station are not official NWS values.
T = Trace of Precipitation, MM = Missing Value Source: NWS Daily Summary

Daily Weather History Graph

Daily Weather History Graph

Search for Another Location

Airport or City:

Trip Planner

Search our weather history database for the weather conditions in past years. The results will help you decide how hot, cold, wet, or windy it might be!

Date:

Astronomy

Apr. 08, 2014 Rise Set
Actual Time 6:26 AM CDT 7:09 PM CDT
Civil Twilight 6:02 AM CDT 7:34 PM CDT
Nautical Twilight 5:33 AM CDT 8:02 PM CDT
Astronomical Twilight 5:04 AM CDT 8:32 PM CDT
Moon 1:25 PM CDT (4/8) 2:15 AM CDT (4/8)
Length of Visible Light 13h 31m
Length of Day
12h 42m
Waxing Gibbous, 63% of the Moon is Illuminated
Apr 8
Waxing Gibbous
Apr 15
Full
Apr 22
Last Quarter
Apr 29
New
May 6
First Quarter

Hourly Weather History & Observations

Time (CDT) Temp. Dew Point Humidity Pressure Visibility Wind Dir Wind Speed Gust Speed Precip Events Conditions
12:58 AM 58.3 °F 48.6 °F 70% 29.85 in 10.0 mi NNW 13.8 mph - N/A   Partly Cloudy
1:58 AM 56.5 °F 47.7 °F 72% 29.82 in 10.0 mi North 11.5 mph - N/A   Scattered Clouds
2:58 AM 54.9 °F 46.2 °F 73% 29.84 in 10.0 mi North 8.1 mph - N/A   Clear
3:58 AM 53.4 °F 45.7 °F 75% 29.84 in 10.0 mi NNW 8.1 mph - N/A   Clear
4:58 AM 50.5 °F 45.9 °F 84% 29.83 in 10.0 mi North 2.3 mph - N/A   Clear
5:58 AM 48.6 °F 46.2 °F 92% 29.84 in 10.0 mi NNW 4.6 mph - N/A   Clear
6:58 AM 48.4 °F 45.9 °F 91% 29.86 in 10.0 mi NNW 2.3 mph - N/A   Clear
7:58 AM 52.0 °F 46.0 °F 80% 29.87 in 10.0 mi NNW 10.4 mph - N/A   Clear
8:55 AM 55.8 °F 42.6 °F 61% 29.88 in 10.0 mi North 6.9 mph - N/A   Mostly Cloudy
9:55 AM 58.8 °F 41.5 °F 53% 29.87 in 10.0 mi North 8.1 mph - N/A   Mostly Cloudy
10:55 AM 61.3 °F 40.3 °F 46% 29.88 in 10.0 mi NNW 11.5 mph - N/A   Mostly Cloudy
11:55 AM 64.0 °F 40.1 °F 41% 29.87 in 10.0 mi NNW 13.8 mph - N/A   Mostly Cloudy
12:55 PM 66.0 °F 39.9 °F 38% 29.83 in 10.0 mi NNW 13.8 mph 18.4 mph N/A   Mostly Cloudy
1:55 PM 67.1 °F 41.2 °F 39% 29.83 in 10.0 mi NNW 10.4 mph 19.6 mph N/A   Mostly Cloudy
2:57 PM 65.8 °F 40.6 °F 40% 29.81 in 10.0 mi West 5.8 mph - N/A   Mostly Cloudy
3:55 PM 66.4 °F 40.6 °F 39% 29.79 in 10.0 mi West 10.4 mph - N/A   Mostly Cloudy
4:55 PM 65.5 °F 41.9 °F 42% 29.80 in 10.0 mi West 15.0 mph - N/A   Mostly Cloudy
6:16 PM 59.0 °F 50.0 °F 72% 29.81 in 10.0 mi West 12.7 mph 26.5 mph N/A Rain Light Rain
6:42 PM 55.4 °F 51.8 °F 88% 29.82 in 10.0 mi West 5.8 mph - N/A   Mostly Cloudy
6:55 PM 55.4 °F 50.7 °F 84% 29.84 in 10.0 mi West 5.8 mph - 0.00 in   Mostly Cloudy
7:55 PM 54.9 °F 50.4 °F 85% 29.87 in 10.0 mi West 5.8 mph - N/A   Scattered Clouds
8:56 PM 54.0 °F 50.7 °F 89% 29.90 in 10.0 mi West 6.9 mph - N/A   Scattered Clouds
9:55 PM 52.7 °F 48.9 °F 87% 29.92 in 10.0 mi WNW 4.6 mph - N/A   Scattered Clouds
10:55 PM 51.1 °F 48.6 °F 91% 29.92 in 10.0 mi West 4.6 mph - N/A   Scattered Clouds
11:55 PM 50.7 °F 48.2 °F 91% 29.94 in 10.0 mi WNW 6.9 mph - N/A   Partly Cloudy